sat.trackr.live / text

‹ back to catalog

KUIPER-00634

NORAD 69785 · 2026-151Y

PAYLOAD ACTIVE UNKNOWN

§ Identity

Operator
Country
US
Launch date
2026-07-02
Launch site
AFETR
Launch vehicle
Mass (kg)
RCS (m²)

External: N2YO · Heavens-Above · Gunter

§ Orbital elements

Epoch: 2026-09-19T22:45:36.658080Z

Period
97.30 min
Inclination
51.8999°
Eccentricity
0.0000826
Mean motion
14.79927889 rev/d
Perigee alt
629.0 km
Apogee alt
630.1 km
Semi-major
7,007.7 km
B*
2.8747e-4
RAAN
234.1377°
Arg perigee
96.8739°
Mean anomaly
263.2317°
Rev number
1,205

§ Raw data

KUIPER-006341 69785U 26151Y   26262.94834095  .00001971  00000+0  28747-3 0  99982 69785  51.8999 234.1377 0000826  96.8739 263.2317 14.79927889 12059

JSON: /api/v1/satellites/69785 · /tle

For live sub-satellite position, see the globe view (requires WebGL).

§ Visibility from observer

Set your observer location to see the next 7 days of passes ≥ 10°. The values pass through the URL so the page stays shareable.

No JS? Fill the form by hand. The geolocation button needs JavaScript.